Showing default

FUNCUBE 1, 39444

Orbit data source: Space-Track

FUNCUBE 1, 39444 is a UK payload satellite in SSO that was launched on Thu, 21 Nov 2013 UTC via a DNEPR launch vehicle from the Orenburg, Russia (OREN). Payload-class satellites include a variety of spacecraft equipped with specific instruments for various scientific and technological missions. These include communications satellites like Starlink; space stations such as the ISS; scientific satellites like the Hubble; Earth observation satellites from companies like Planet Labs, Umbra, and HawkEye 360; GPS; miniature CubeSats for education and research; and military/defense satellites.

Loading next visibility...
Identifier
39444, 2013-066AE
Orbit
SSO
Country
Flag of UKUK
Related business
Manufacturer
ISIS BV
Mission
Operational Amateur Technology
Bus & Motor
CUBESAT 1U, Unknown motor
Mass
1 kg wet, 1 kg dry
Launch date (UTC)
2013-11-21 (12 years ago)
Launch vehicle
DNEPR
Launch site
Orenburg, Russia (OREN)
Object type
Payload
Rocket body
Debris
Shape & HBR
Box, 0.1 m
Radar Cross Section
0.015 m², Small (<0.1 m²)

Expand to show TLE details & history
Last TLE update: 11 hours ago

TLE from 11 hours ago
0 FUNCUBE 1
1 39444U 13066AE  25300.39267293  .00010984  00000-0  76896-3 0  9992
2 39444  97.7991 263.1577 0037875 274.8147  84.8755 15.04843623644593
Epoch: 2025-10-27T09:25Z
TLE epoch observation values (Epoch: 2025-10-27T09:25:26.941Z)
Latitude
0.00005°
Longitude
85.80027°
Altitude
552.798 km
Speed
7.587 km/s
True Right ascension
17h 32m 37s
True Declination
0° 00' 00"
Sunlit
Object was in daylight at epoch
Visualization orbit readout
Latitude
Unknown
Longitude
Unknown
Altitude
Unknown
Speed
Unknown
Apparent Right ascension
Unknown
Apparent Declination
Unknown
Sunlit
N/A
Visualization observer readout
Local Sidereal Time
15:44:23
Azimuth
Unknown
Elevation
Unknown
Doppler factor
Unknown
Orbital elements
Apogee altitude
575.225 km
Perigee altitude
522.752 km
Semi-major axis
6,927.126 km
Eccentricity
0.00379
Inclination
97.7991°
RAAN
263.1577°
Arg. of periapsis
274.8147°
True anomaly
85.30796°
Mean anomaly
84.8755°
Eccentric anomaly
85.09171°
Mean motion
3.76455 °/min
Orbital period
95.63 mins
BSTAR
0.00076896
Loading maneuver chart data...
Computing Atmospheric mass density...
Loading historical data...
Loading historical data...
Loading historical data...
Loading historical data...
Loading historical data...
Loading historical data...
Loading historical data...

Documentation

Showing up to 5 results
|